Time,TemperatureF,DewpointF,PressureIn,WindDirection,WindDirectionDegrees,WindSpeedMPH,WindSpeedGustMPH,Humidity,HourlyPrecipIn,Conditions,Clouds,dailyrainin,SoftwareType,DateUTC
2013-07-08 00:00:00,78.3,63.3,29.21,South,178,0.0,0.0,60,0.00,,---,0.00,VWS V14.00,2013-07-08 05:00:00,
2013-07-08 00:04:00,78.3,63.3,29.21,South,178,0.0,0.0,60,0.00,,---,0.00,VWS V14.00,2013-07-08 05:04:00,
2013-07-08 00:07:00,78.1,63.1,29.21,South,178,0.0,0.0,60,0.00,,---,0.00,VWS V14.00,2013-07-08 05:07:00,
2013-07-08 00:10:00,78.1,63.6,29.21,South,178,0.0,0.0,61,0.00,,---,0.00,VWS V14.00,2013-07-08 05:10:00,
2013-07-08 00:15:00,78.0,63.4,29.21,South,178,0.0,0.0,61,0.00,,---,0.00,VWS V14.00,2013-07-08 05:15:00,
2013-07-08 00:19:00,78.0,63.4,29.21,South,178,0.0,0.0,61,0.00,,---,0.00,VWS V14.00,2013-07-08 05:19:00,
2013-07-08 00:22:00,78.0,63.4,29.23,South,178,0.0,0.0,61,0.00,,---,0.00,VWS V14.00,2013-07-08 05:22:00,
2013-07-08 00:25:00,78.0,63.4,29.23,South,178,0.0,0.0,61,0.00,,---,0.00,VWS V14.00,2013-07-08 05:25:00,
2013-07-08 00:30:00,77.8,63.3,29.23,South,178,0.0,0.0,61,0.00,,---,0.00,VWS V14.00,2013-07-08 05:30:00,
2013-07-08 00:31:00,77.8,63.3,29.23,South,178,0.0,0.0,61,0.00,,---,0.00,VWS V14.00,2013-07-08 05:31:00,
2013-07-08 00:40:00,77.8,63.7,29.21,South,178,0.0,0.0,62,0.00,,---,0.00,VWS V14.00,2013-07-08 05:40:00,
2013-07-08 00:43:00,77.6,63.6,29.21,South,178,0.0,0.0,62,0.00,,---,0.00,VWS V14.00,2013-07-08 05:43:00,
2013-07-08 00:46:00,77.6,63.6,29.21,South,178,0.0,0.0,62,0.00,,---,0.00,VWS V14.00,2013-07-08 05:46:00,
2013-07-08 00:49:00,77.6,63.6,29.21,South,178,0.0,0.0,62,0.00,,---,0.00,VWS V14.00,2013-07-08 05:49:00,
2013-07-08 00:52:00,77.6,63.6,29.21,South,178,0.0,0.0,62,0.00,,---,0.00,VWS V14.00,2013-07-08 05:52:00,
2013-07-08 00:55:00,77.4,63.8,29.21,South,178,0.0,0.0,63,0.00,,---,0.00,VWS V14.00,2013-07-08 05:55:00,
2013-07-08 00:58:00,77.4,63.8,29.21,South,178,0.0,0.0,63,0.00,,---,0.00,VWS V14.00,2013-07-08 05:58:00,
2013-07-08 01:04:00,77.4,63.8,29.21,South,178,0.0,0.0,63,0.00,,---,0.00,VWS V14.00,2013-07-08 06:04:00,
2013-07-08 01:07:00,77.2,63.7,29.23,South,178,0.0,0.0,63,0.00,,---,0.00,VWS V14.00,2013-07-08 06:07:00,
2013-07-08 01:13:00,77.2,64.1,29.23,South,178,0.0,0.0,64,0.00,,---,0.00,VWS V14.00,2013-07-08 06:13:00,
2013-07-08 01:15:00,77.1,64.0,29.23,South,178,0.0,0.0,64,0.00,,---,0.00,VWS V14.00,2013-07-08 06:15:00,
2013-07-08 01:16:00,77.1,64.0,29.23,South,178,0.0,0.0,64,0.00,,---,0.00,VWS V14.00,2013-07-08 06:16:00,
2013-07-08 01:23:00,77.1,64.0,29.23,South,178,0.0,0.0,64,0.00,,---,0.00,VWS V14.00,2013-07-08 06:23:00,
2013-07-08 01:26:00,76.9,63.8,29.23,South,178,0.0,0.0,64,0.00,,---,0.00,VWS V14.00,2013-07-08 06:26:00,
2013-07-08 01:29:00,76.9,63.8,29.23,South,178,0.0,0.0,64,0.00,,---,0.00,VWS V14.00,2013-07-08 06:29:00,
2013-07-08 01:30:00,76.9,63.8,29.23,South,178,0.0,0.0,64,0.00,,---,0.00,VWS V14.00,2013-07-08 06:30:00,
2013-07-08 01:32:00,76.9,63.8,29.23,South,178,0.0,0.0,64,0.00,,---,0.00,VWS V14.00,2013-07-08 06:32:00,
2013-07-08 01:38:00,76.9,63.8,29.21,South,178,0.0,0.0,64,0.00,,---,0.00,VWS V14.00,2013-07-08 06:38:00,
2013-07-08 01:41:00,76.7,64.1,29.21,South,178,0.0,0.0,65,0.00,,---,0.00,VWS V14.00,2013-07-08 06:41:00,
2013-07-08 01:44:00,76.7,64.1,29.21,South,178,0.0,0.0,65,0.00,,---,0.00,VWS V14.00,2013-07-08 06:44:00,
2013-07-08 01:45:00,76.7,64.1,29.21,South,177,0.0,0.0,65,0.00,,---,0.00,VWS V14.00,2013-07-08 06:45:00,
2013-07-08 01:50:00,76.7,64.1,29.21,South,182,0.0,0.0,65,0.00,,---,0.00,VWS V14.00,2013-07-08 06:50:00,
2013-07-08 01:53:00,76.7,64.1,29.23,South,182,0.0,0.0,65,0.00,,---,0.00,VWS V14.00,2013-07-08 06:53:00,
2013-07-08 01:56:00,76.7,64.5,29.23,South,182,0.0,0.0,66,0.00,,---,0.00,VWS V14.00,2013-07-08 06:56:00,
2013-07-08 01:59:00,76.7,64.5,29.23,South,182,0.0,0.0,66,0.00,,---,0.00,VWS V14.00,2013-07-08 06:59:00,
2013-07-08 02:05:00,76.7,64.5,29.23,South,182,0.0,0.0,66,0.00,,---,0.00,VWS V14.00,2013-07-08 07:05:00,
2013-07-08 02:08:00,76.5,64.3,29.23,South,182,0.0,0.0,66,0.00,,---,0.00,VWS V14.00,2013-07-08 07:08:00,
2013-07-08 02:11:00,76.5,64.3,29.23,South,182,0.0,0.0,66,0.00,,---,0.00,VWS V14.00,2013-07-08 07:11:00,
2013-07-08 02:14:00,76.5,64.8,29.23,South,182,0.0,0.0,67,0.00,,---,0.00,VWS V14.00,2013-07-08 07:14:00,
2013-07-08 02:15:00,76.5,64.8,29.23,South,182,0.0,0.0,67,0.00,,---,0.00,VWS V14.00,2013-07-08 07:15:00,
2013-07-08 02:17:00,76.5,64.8,29.23,South,182,0.0,0.0,67,0.00,,---,0.00,VWS V14.00,2013-07-08 07:17:00,
2013-07-08 02:20:00,76.5,64.8,29.23,South,182,0.0,0.0,67,0.00,,---,0.00,VWS V14.00,2013-07-08 07:20:00,
2013-07-08 02:23:00,76.5,64.8,29.23,South,182,0.0,0.0,67,0.00,,---,0.00,VWS V14.00,2013-07-08 07:23:00,
2013-07-08 02:26:00,76.5,64.8,29.23,South,182,0.0,0.0,67,0.00,,---,0.00,VWS V14.00,2013-07-08 07:26:00,
2013-07-08 02:29:00,76.5,64.8,29.23,South,182,0.0,0.0,67,0.00,,---,0.00,VWS V14.00,2013-07-08 07:29:00,
2013-07-08 02:30:00,76.5,64.8,29.23,South,182,0.0,0.0,67,0.00,,---,0.00,VWS V14.00,2013-07-08 07:30:00,
2013-07-08 02:35:00,76.3,64.6,29.23,South,182,0.0,0.0,67,0.00,,---,0.00,VWS V14.00,2013-07-08 07:35:00,
2013-07-08 02:41:00,76.2,64.8,29.23,South,180,0.0,0.0,68,0.00,,---,0.00,VWS V14.00,2013-07-08 07:41:00,
2013-07-08 02:44:00,76.2,64.8,29.23,South,180,0.0,0.0,68,0.00,,---,0.00,VWS V14.00,2013-07-08 07:44:00,
2013-07-08 02:45:00,76.0,64.7,29.23,South,180,0.0,0.0,68,0.00,,---,0.00,VWS V14.00,2013-07-08 07:45:00,
2013-07-08 02:53:00,75.8,64.5,29.21,South,188,0.0,0.0,68,0.00,,---,0.00,VWS V14.00,2013-07-08 07:53:00,
2013-07-08 02:56:00,75.8,64.5,29.21,South,188,0.0,0.0,68,0.00,,---,0.00,VWS V14.00,2013-07-08 07:56:00,
2013-07-08 03:00:00,75.8,64.5,29.21,South,188,0.0,0.0,68,0.00,,---,0.00,VWS V14.00,2013-07-08 08:00:00,
2013-07-08 03:02:00,75.8,64.5,29.21,South,188,0.0,0.0,68,0.00,,---,0.00,VWS V14.00,2013-07-08 08:02:00,
2013-07-08 03:05:00,75.8,64.5,29.21,South,188,0.0,0.0,68,0.00,,---,0.00,VWS V14.00,2013-07-08 08:05:00,
2013-07-08 03:08:00,75.8,64.5,29.21,South,188,0.0,0.0,68,0.00,,---,0.00,VWS V14.00,2013-07-08 08:08:00,
2013-07-08 03:11:00,75.6,64.7,29.21,South,188,0.0,0.0,69,0.00,,---,0.00,VWS V14.00,2013-07-08 08:11:00,
2013-07-08 03:14:00,75.6,64.7,29.21,South,188,0.0,0.0,69,0.00,,---,0.00,VWS V14.00,2013-07-08 08:14:00,
2013-07-08 03:15:00,75.6,64.7,29.21,South,188,0.0,0.0,69,0.00,,---,0.00,VWS V14.00,2013-07-08 08:15:00,
2013-07-08 03:23:00,75.4,64.6,29.23,South,188,0.0,0.0,69,0.00,,---,0.00,VWS V14.00,2013-07-08 08:23:00,
2013-07-08 03:26:00,75.4,64.6,29.23,South,188,0.0,0.0,69,0.00,,---,0.00,VWS V14.00,2013-07-08 08:26:00,
2013-07-08 03:29:00,75.4,64.6,29.23,South,188,0.0,0.0,69,0.00,,---,0.00,VWS V14.00,2013-07-08 08:29:00,
2013-07-08 03:30:00,75.3,64.4,29.23,South,188,0.0,0.0,69,0.00,,---,0.00,VWS V14.00,2013-07-08 08:30:00,
2013-07-08 03:38:00,75.3,64.8,29.21,South,188,0.0,0.0,70,0.00,,---,0.00,VWS V14.00,2013-07-08 08:38:00,
2013-07-08 03:41:00,75.3,64.8,29.21,South,188,0.0,0.0,70,0.00,,---,0.00,VWS V14.00,2013-07-08 08:41:00,
2013-07-08 03:45:00,75.3,64.8,29.21,South,188,0.0,0.0,70,0.00,,---,0.00,VWS V14.00,2013-07-08 08:45:00,
2013-07-08 03:47:00,75.3,64.8,29.21,South,188,0.0,0.0,70,0.00,,---,0.00,VWS V14.00,2013-07-08 08:47:00,
2013-07-08 03:50:00,75.3,64.8,29.21,South,188,0.0,0.0,70,0.00,,---,0.00,VWS V14.00,2013-07-08 08:50:00,
2013-07-08 03:53:00,75.1,64.6,29.23,South,188,0.0,0.0,70,0.00,,---,0.00,VWS V14.00,2013-07-08 08:53:00,
2013-07-08 03:56:00,75.1,64.6,29.23,South,188,0.0,0.0,70,0.00,,---,0.00,VWS V14.00,2013-07-08 08:56:00,
2013-07-08 03:59:00,75.1,64.6,29.23,South,188,0.0,0.0,70,0.00,,---,0.00,VWS V14.00,2013-07-08 08:59:00,
2013-07-08 04:02:00,74.9,64.5,29.23,South,188,0.0,0.0,70,0.00,,---,0.00,VWS V14.00,2013-07-08 09:02:00,
2013-07-08 04:05:00,74.9,64.9,29.23,South,179,0.0,0.0,71,0.00,,---,0.00,VWS V14.00,2013-07-08 09:05:00,
2013-07-08 04:08:00,74.9,64.9,29.23,South,179,0.0,0.0,71,0.00,,---,0.00,VWS V14.00,2013-07-08 09:08:00,
2013-07-08 04:11:00,74.7,64.7,29.23,South,189,0.0,0.0,71,0.00,,---,0.00,VWS V14.00,2013-07-08 09:11:00,
2013-07-08 04:15:00,74.7,64.7,29.23,South,189,0.0,0.0,71,0.00,,---,0.00,VWS V14.00,2013-07-08 09:15:00,
2013-07-08 04:17:00,74.7,64.7,29.23,South,189,0.0,0.0,71,0.00,,---,0.00,VWS V14.00,2013-07-08 09:17:00,
2013-07-08 04:20:00,74.5,64.5,29.23,South,189,0.0,0.0,71,0.00,,---,0.00,VWS V14.00,2013-07-08 09:20:00,
2013-07-08 04:23:00,74.5,64.9,29.21,South,189,0.0,0.0,72,0.00,,---,0.00,VWS V14.00,2013-07-08 09:23:00,
2013-07-08 04:29:00,74.5,64.9,29.21,South,189,0.0,0.0,72,0.00,,---,0.00,VWS V14.00,2013-07-08 09:29:00,
2013-07-08 04:32:00,74.5,64.9,29.21,South,189,0.0,0.0,72,0.00,,---,0.00,VWS V14.00,2013-07-08 09:32:00,
2013-07-08 04:35:00,74.4,64.8,29.21,South,189,0.0,0.0,72,0.00,,---,0.00,VWS V14.00,2013-07-08 09:35:00,
2013-07-08 04:38:00,74.4,64.8,29.23,South,189,0.0,0.0,72,0.00,,---,0.00,VWS V14.00,2013-07-08 09:38:00,
2013-07-08 04:41:00,74.4,64.8,29.23,South,189,0.0,0.0,72,0.00,,---,0.00,VWS V14.00,2013-07-08 09:41:00,
2013-07-08 04:45:00,74.4,64.8,29.23,South,189,0.0,0.0,72,0.00,,---,0.00,VWS V14.00,2013-07-08 09:45:00,
2013-07-08 04:47:00,74.4,64.8,29.23,South,189,0.0,0.0,72,0.00,,---,0.00,VWS V14.00,2013-07-08 09:47:00,
2013-07-08 04:50:00,74.4,64.8,29.23,South,189,0.0,0.0,72,0.00,,---,0.00,VWS V14.00,2013-07-08 09:50:00,
2013-07-08 04:56:00,74.2,64.6,29.23,South,189,0.0,0.0,72,0.00,,---,0.00,VWS V14.00,2013-07-08 09:56:00,
2013-07-08 04:59:00,74.2,64.6,29.23,South,189,0.0,0.0,72,0.00,,---,0.00,VWS V14.00,2013-07-08 09:59:00,
2013-07-08 05:05:00,74.2,65.0,29.23,South,189,0.0,0.0,73,0.00,,---,0.00,VWS V14.00,2013-07-08 10:05:00,
2013-07-08 05:11:00,74.0,64.8,29.23,South,189,0.0,0.0,73,0.00,,---,0.00,VWS V14.00,2013-07-08 10:11:00,
2013-07-08 05:14:00,74.0,64.8,29.23,South,189,0.0,0.0,73,0.00,,---,0.00,VWS V14.00,2013-07-08 10:14:00,
2013-07-08 05:15:00,74.0,64.8,29.23,South,189,0.0,0.0,73,0.00,,---,0.00,VWS V14.00,2013-07-08 10:15:00,
2013-07-08 05:17:00,74.0,64.8,29.23,South,189,0.0,0.0,73,0.00,,---,0.00,VWS V14.00,2013-07-08 10:17:00,
2013-07-08 05:20:00,74.0,64.8,29.23,South,189,0.0,0.0,73,0.00,,---,0.00,VWS V14.00,2013-07-08 10:20:00,
2013-07-08 05:26:00,74.0,64.8,29.23,South,189,0.0,0.0,73,0.00,,---,0.00,VWS V14.00,2013-07-08 10:26:00,
2013-07-08 05:29:00,73.8,65.0,29.23,South,189,0.0,0.0,74,0.00,,---,0.00,VWS V14.00,2013-07-08 10:29:00,
2013-07-08 05:32:00,73.8,65.0,29.23,South,189,0.0,0.0,74,0.00,,---,0.00,VWS V14.00,2013-07-08 10:32:00,
2013-07-08 05:35:00,73.8,65.0,29.23,South,189,0.0,0.0,74,0.00,,---,0.00,VWS V14.00,2013-07-08 10:35:00,
2013-07-08 05:38:00,73.8,65.0,29.23,South,189,0.0,0.0,74,0.00,,---,0.00,VWS V14.00,2013-07-08 10:38:00,
2013-07-08 05:41:00,73.6,64.8,29.23,South,189,0.0,0.0,74,0.00,,---,0.00,VWS V14.00,2013-07-08 10:41:00,
2013-07-08 05:44:00,73.6,64.8,29.23,South,189,0.0,0.0,74,0.00,,---,0.00,VWS V14.00,2013-07-08 10:44:00,
2013-07-08 05:45:00,73.6,64.8,29.23,South,189,0.0,0.0,74,0.00,,---,0.00,VWS V14.00,2013-07-08 10:45:00,
2013-07-08 05:50:00,73.6,64.8,29.23,South,189,0.0,0.0,74,0.00,,---,0.00,VWS V14.00,2013-07-08 10:50:00,
2013-07-08 05:53:00,73.6,65.2,29.23,South,189,0.0,0.0,75,0.00,,---,0.00,VWS V14.00,2013-07-08 10:53:00,
2013-07-08 05:56:00,73.6,65.2,29.23,South,189,0.0,0.0,75,0.00,,---,0.00,VWS V14.00,2013-07-08 10:56:00,
2013-07-08 05:59:00,73.6,65.2,29.23,South,189,0.0,0.0,75,0.00,,---,0.00,VWS V14.00,2013-07-08 10:59:00,
2013-07-08 06:00:00,73.6,65.2,29.23,South,189,0.0,0.0,75,0.00,,---,0.00,VWS V14.00,2013-07-08 11:00:00,
2013-07-08 06:05:00,73.6,65.2,29.23,South,189,0.0,0.0,75,0.00,,---,0.00,VWS V14.00,2013-07-08 11:05:00,
2013-07-08 06:08:00,73.6,65.2,29.23,South,189,0.0,0.0,75,0.00,,---,0.00,VWS V14.00,2013-07-08 11:08:00,
2013-07-08 06:11:00,73.6,65.2,29.23,South,189,0.0,0.0,75,0.00,,---,0.00,VWS V14.00,2013-07-08 11:11:00,
2013-07-08 06:14:00,73.6,65.2,29.23,South,189,0.0,0.0,75,0.00,,---,0.00,VWS V14.00,2013-07-08 11:14:00,
2013-07-08 06:15:00,73.6,65.2,29.23,South,189,0.0,0.0,75,0.00,,---,0.00,VWS V14.00,2013-07-08 11:15:00,
2013-07-08 06:17:00,73.6,65.2,29.23,South,189,0.0,0.0,75,0.00,,---,0.00,VWS V14.00,2013-07-08 11:17:00,
2013-07-08 06:23:00,73.6,65.2,29.23,South,189,0.0,0.0,75,0.00,,---,0.00,VWS V14.00,2013-07-08 11:23:00,
2013-07-08 06:26:00,73.5,65.1,29.23,South,189,0.0,0.0,75,0.00,,---,0.00,VWS V14.00,2013-07-08 11:26:00,
2013-07-08 06:29:00,73.5,65.1,29.23,South,189,0.0,0.0,75,0.00,,---,0.00,VWS V14.00,2013-07-08 11:29:00,
2013-07-08 06:32:00,73.5,65.4,29.23,South,189,0.0,0.0,76,0.00,,---,0.00,VWS V14.00,2013-07-08 11:32:00,
2013-07-08 06:35:00,73.5,65.4,29.23,South,189,0.0,0.0,76,0.00,,---,0.00,VWS V14.00,2013-07-08 11:35:00,
2013-07-08 06:38:00,73.5,65.4,29.23,South,189,0.0,0.0,76,0.00,,---,0.00,VWS V14.00,2013-07-08 11:38:00,
2013-07-08 06:41:00,73.5,65.4,29.23,South,189,0.0,0.0,76,0.00,,---,0.00,VWS V14.00,2013-07-08 11:41:00,
2013-07-08 06:44:00,73.5,65.4,29.23,South,188,0.0,0.0,76,0.00,,---,0.00,VWS V14.00,2013-07-08 11:44:00,
2013-07-08 06:48:00,73.6,65.6,29.23,South,188,0.0,0.0,76,0.00,,---,0.00,VWS V14.00,2013-07-08 11:48:00,
2013-07-08 06:51:00,73.6,65.6,29.23,South,188,0.0,0.0,76,0.00,,---,0.00,VWS V14.00,2013-07-08 11:51:00,
2013-07-08 06:54:00,73.6,65.6,29.23,South,188,0.0,0.0,76,0.00,,---,0.00,VWS V14.00,2013-07-08 11:54:00,
2013-07-08 06:57:00,73.6,66.0,29.23,South,188,0.0,0.0,77,0.00,,---,0.00,VWS V14.00,2013-07-08 11:57:00,
2013-07-08 07:00:00,73.6,66.0,29.23,South,188,0.0,0.0,77,0.00,,---,0.00,VWS V14.00,2013-07-08 12:00:00,
2013-07-08 07:03:00,73.8,66.2,29.23,South,188,0.0,0.0,77,0.00,,---,0.00,VWS V14.00,2013-07-08 12:03:00,
2013-07-08 07:06:00,73.8,66.2,29.23,South,188,0.0,0.0,77,0.00,,---,0.00,VWS V14.00,2013-07-08 12:06:00,
2013-07-08 07:09:00,74.0,66.3,29.23,South,188,0.0,0.0,77,0.00,,---,0.00,VWS V14.00,2013-07-08 12:09:00,
2013-07-08 07:12:00,74.0,66.3,29.23,South,188,0.0,0.0,77,0.00,,---,0.00,VWS V14.00,2013-07-08 12:12:00,
2013-07-08 07:15:00,74.2,66.5,29.23,South,188,0.0,0.0,77,0.00,,---,0.00,VWS V14.00,2013-07-08 12:15:00,
2013-07-08 07:18:00,74.2,66.5,29.23,South,188,0.0,0.0,77,0.00,,---,0.00,VWS V14.00,2013-07-08 12:18:00,
2013-07-08 07:21:00,74.4,66.7,29.23,South,188,0.0,0.0,77,0.00,,---,0.00,VWS V14.00,2013-07-08 12:21:00,
2013-07-08 07:27:00,74.5,66.9,29.23,South,188,0.0,0.0,77,0.00,,---,0.00,VWS V14.00,2013-07-08 12:27:00,
2013-07-08 07:30:00,74.7,67.0,29.23,South,188,0.0,0.0,77,0.00,,---,0.00,VWS V14.00,2013-07-08 12:30:00,
2013-07-08 07:36:00,74.9,67.2,29.23,South,187,0.0,0.0,77,0.00,,---,0.00,VWS V14.00,2013-07-08 12:36:00,
2013-07-08 07:39:00,75.1,67.4,29.23,South,187,0.0,0.0,77,0.00,,---,0.00,VWS V14.00,2013-07-08 12:39:00,
2013-07-08 07:45:00,75.3,67.6,29.23,South,187,0.0,0.0,77,0.00,,---,0.00,VWS V14.00,2013-07-08 12:45:00,
2013-07-08 07:48:00,75.6,67.9,29.23,South,187,0.0,0.0,77,0.00,,---,0.00,VWS V14.00,2013-07-08 12:48:00,
2013-07-08 07:51:00,75.8,68.1,29.23,South,184,0.0,0.0,77,0.00,,---,0.00,VWS V14.00,2013-07-08 12:51:00,
2013-07-08 07:54:00,76.0,68.3,29.23,South,183,0.0,0.0,77,0.00,,---,0.00,VWS V14.00,2013-07-08 12:54:00,
2013-07-08 07:57:00,76.2,68.4,29.23,South,182,0.0,0.0,77,0.00,,---,0.00,VWS V14.00,2013-07-08 12:57:00,
2013-07-08 08:00:00,76.3,68.2,29.23,South,189,0.0,0.0,76,0.00,,---,0.00,VWS V14.00,2013-07-08 13:00:00,
2013-07-08 08:03:00,76.5,68.4,29.23,South,177,0.0,0.0,76,0.00,,---,0.00,VWS V14.00,2013-07-08 13:03:00,
2013-07-08 08:06:00,76.9,68.8,29.23,South,175,0.0,0.0,76,0.00,,---,0.00,VWS V14.00,2013-07-08 13:06:00,
2013-07-08 08:09:00,77.1,68.9,29.26,South,172,0.0,0.0,76,0.00,,---,0.00,VWS V14.00,2013-07-08 13:09:00,
2013-07-08 08:12:00,77.4,69.3,29.26,SSE,167,3.6,4.0,76,0.00,,---,0.00,VWS V14.00,2013-07-08 13:12:00,
2013-07-08 08:15:00,77.6,69.1,29.26,SSE,168,2.7,4.0,75,0.00,,---,0.00,VWS V14.00,2013-07-08 13:15:00,
2013-07-08 08:18:00,77.8,69.2,29.26,SSE,167,0.0,3.1,75,0.00,,---,0.00,VWS V14.00,2013-07-08 13:18:00,
2013-07-08 08:21:00,78.1,69.6,29.26,SSE,167,0.0,3.1,75,0.00,,---,0.00,VWS V14.00,2013-07-08 13:21:00,
2013-07-08 08:24:00,78.3,69.8,29.26,SSE,167,0.0,3.1,75,0.00,,---,0.00,VWS V14.00,2013-07-08 13:24:00,
2013-07-08 08:27:00,78.5,69.9,29.26,South,170,0.0,3.1,75,0.00,,---,0.00,VWS V14.00,2013-07-08 13:27:00,
2013-07-08 08:30:00,78.9,69.9,29.26,SSE,168,0.0,4.0,74,0.00,,---,0.00,VWS V14.00,2013-07-08 13:30:00,
2013-07-08 08:33:00,79.2,70.2,29.26,SSE,167,3.6,4.0,74,0.00,,---,0.00,VWS V14.00,2013-07-08 13:33:00,
2013-07-08 08:39:00,79.4,70.0,29.26,South,175,0.0,4.0,73,0.00,,---,0.00,VWS V14.00,2013-07-08 13:39:00,
2013-07-08 08:42:00,79.6,70.2,29.26,South,172,4.0,4.0,73,0.00,,---,0.00,VWS V14.00,2013-07-08 13:42:00,
2013-07-08 08:45:00,79.8,69.9,29.26,SSE,165,2.7,4.0,72,0.00,,---,0.00,VWS V14.00,2013-07-08 13:45:00,
2013-07-08 08:48:00,79.9,70.1,29.26,South,171,4.0,4.0,72,0.00,,---,0.00,VWS V14.00,2013-07-08 13:48:00,
2013-07-08 08:51:00,80.1,69.9,29.26,SSE,165,2.7,4.9,71,0.00,,---,0.00,VWS V14.00,2013-07-08 13:51:00,
2013-07-08 08:54:00,80.3,70.1,29.26,South,171,3.1,4.9,71,0.00,,---,0.00,VWS V14.00,2013-07-08 13:54:00,
2013-07-08 08:57:00,80.5,70.2,29.26,SSE,165,4.9,4.9,71,0.00,,---,0.00,VWS V14.00,2013-07-08 13:57:00,
2013-07-08 09:00:00,80.7,70.4,29.26,SSE,168,2.7,4.9,71,0.00,,---,0.00,VWS V14.00,2013-07-08 14:00:00,
2013-07-08 09:03:00,81.0,70.3,29.26,SSE,162,2.7,4.0,70,0.00,,---,0.00,VWS V14.00,2013-07-08 14:03:00,
2013-07-08 09:06:00,81.2,70.5,29.26,SSE,168,4.0,4.9,70,0.00,,---,0.00,VWS V14.00,2013-07-08 14:06:00,
2013-07-08 09:09:00,81.4,70.2,29.26,SSE,161,3.1,4.9,69,0.00,,---,0.00,VWS V14.00,2013-07-08 14:09:00,
2013-07-08 09:15:00,81.9,70.8,29.26,South,172,4.0,4.9,69,0.00,,---,0.00,VWS V14.00,2013-07-08 14:15:00,
2013-07-08 09:21:00,82.5,70.8,29.26,SSE,166,3.6,4.9,68,0.00,,---,0.00,VWS V14.00,2013-07-08 14:21:00,
2013-07-08 09:24:00,82.8,71.2,29.26,South,170,3.6,4.9,68,0.00,,---,0.00,VWS V14.00,2013-07-08 14:24:00,
2013-07-08 09:27:00,83.0,70.9,29.26,SSE,166,4.0,4.9,67,0.00,,---,0.00,VWS V14.00,2013-07-08 14:27:00,
2013-07-08 09:30:00,83.0,70.9,29.26,South,177,3.6,4.9,67,0.00,,---,0.00,VWS V14.00,2013-07-08 14:30:00,
2013-07-08 09:33:00,83.2,71.1,29.26,SSE,157,4.0,4.0,67,0.00,,---,0.00,VWS V14.00,2013-07-08 14:33:00,
2013-07-08 09:36:00,83.5,71.4,29.26,South,182,3.1,4.0,67,0.00,,---,0.00,VWS V14.00,2013-07-08 14:36:00,
2013-07-08 09:39:00,83.7,71.2,29.26,SSE,151,3.1,4.0,66,0.00,,---,0.00,VWS V14.00,2013-07-08 14:39:00,
2013-07-08 09:42:00,84.1,71.5,29.26,SSE,154,3.6,4.0,66,0.00,,---,0.00,VWS V14.00,2013-07-08 14:42:00,
2013-07-08 09:45:00,84.4,71.8,29.26,SSE,161,2.7,4.0,66,0.00,,---,0.00,VWS V14.00,2013-07-08 14:45:00,
2013-07-08 09:51:00,85.0,71.9,29.26,South,184,4.0,4.0,65,0.00,,---,0.00,VWS V14.00,2013-07-08 14:51:00,
2013-07-08 09:54:00,85.2,72.1,29.26,South,177,2.2,4.0,65,0.00,,---,0.00,VWS V14.00,2013-07-08 14:54:00,
2013-07-08 09:57:00,85.3,72.2,29.26,South,172,3.6,4.0,65,0.00,,---,0.00,VWS V14.00,2013-07-08 14:57:00,
2013-07-08 10:00:00,85.7,72.1,29.26,South,171,3.1,4.0,64,0.00,,---,0.00,VWS V14.00,2013-07-08 15:00:00,
2013-07-08 10:03:00,86.1,72.5,29.26,South,187,3.1,4.0,64,0.00,,---,0.00,VWS V14.00,2013-07-08 15:03:00,
2013-07-08 10:06:00,86.6,73.0,29.26,SSE,151,4.0,4.0,64,0.00,,---,0.00,VWS V14.00,2013-07-08 15:06:00,
2013-07-08 10:09:00,87.1,73.5,29.26,SSE,165,3.6,4.0,64,0.00,,---,0.00,VWS V14.00,2013-07-08 15:09:00,
2013-07-08 10:12:00,87.7,73.5,29.26,SSE,160,3.1,4.0,63,0.00,,---,0.00,VWS V14.00,2013-07-08 15:12:00,
2013-07-08 10:15:00,87.9,73.7,29.26,South,182,0.0,4.0,63,0.00,,---,0.00,VWS V14.00,2013-07-08 15:15:00,
2013-07-08 10:21:00,89.3,75.1,29.26,SSE,152,4.0,4.0,63,0.00,,---,0.00,VWS V14.00,2013-07-08 15:21:00,
2013-07-08 10:24:00,90.2,75.4,29.26,SSE,165,2.7,4.0,62,0.00,,---,0.00,VWS V14.00,2013-07-08 15:24:00,
2013-07-08 10:30:00,91.5,76.1,29.26,SSE,163,4.0,4.0,61,0.00,,---,0.00,VWS V14.00,2013-07-08 15:30:00,
2013-07-08 10:33:00,92.2,76.8,29.26,South,170,3.6,5.4,61,0.00,,---,0.00,VWS V14.00,2013-07-08 15:33:00,
2013-07-08 10:36:00,92.5,76.6,29.26,SSE,161,2.2,5.4,60,0.00,,---,0.00,VWS V14.00,2013-07-08 15:36:00,
2013-07-08 10:39:00,92.5,76.1,29.26,SSE,162,0.0,5.4,59,0.00,,---,0.00,VWS V14.00,2013-07-08 15:39:00,
2013-07-08 10:43:00,92.9,75.9,29.26,South,181,2.7,5.4,58,0.00,,---,0.00,VWS V14.00,2013-07-08 15:43:00,
2013-07-08 10:45:00,93.6,76.6,29.26,SE,143,3.1,5.4,58,0.00,,---,0.00,VWS V14.00,2013-07-08 15:45:00,
2013-07-08 10:49:00,94.5,76.9,29.26,South,176,4.0,4.0,57,0.00,,---,0.00,VWS V14.00,2013-07-08 15:49:00,
2013-07-08 10:55:00,95.8,77.0,29.26,SSE,164,4.0,4.0,55,0.00,,---,0.00,VWS V14.00,2013-07-08 15:55:00,
2013-07-08 10:58:00,96.1,76.8,29.26,South,178,2.7,4.0,54,0.00,,---,0.00,VWS V14.00,2013-07-08 15:58:00,
2013-07-08 11:01:00,96.5,77.1,29.26,SSE,168,3.6,3.6,54,0.00,,---,0.00,VWS V14.00,2013-07-08 16:01:00,
2013-07-08 11:04:00,96.5,76.6,29.26,SSE,164,4.0,4.0,53,0.00,,---,0.00,VWS V14.00,2013-07-08 16:04:00,
2013-07-08 11:07:00,96.0,74.9,29.26,SSE,164,3.1,4.0,51,0.00,,---,0.00,VWS V14.00,2013-07-08 16:07:00,
2013-07-08 11:13:00,94.3,72.2,29.26,SSE,162,4.9,6.3,49,0.00,,---,0.00,VWS V14.00,2013-07-08 16:13:00,
2013-07-08 11:15:00,93.6,71.6,29.26,South,190,2.7,6.3,49,0.00,,---,0.00,VWS V14.00,2013-07-08 16:15:00,
2013-07-08 11:19:00,92.9,70.9,29.26,SSW,200,3.6,3.6,49,0.00,,---,0.00,VWS V14.00,2013-07-08 16:19:00,
2013-07-08 11:25:00,92.0,69.5,29.26,South,181,3.6,4.9,48,0.00,,---,0.00,VWS V14.00,2013-07-08 16:25:00,
2013-07-08 11:28:00,91.8,69.9,29.26,South,185,0.0,4.9,49,0.00,,---,0.00,VWS V14.00,2013-07-08 16:28:00,
2013-07-08 11:30:00,91.6,69.2,29.26,South,173,2.7,4.9,48,0.00,,---,0.00,VWS V14.00,2013-07-08 16:30:00,
2013-07-08 11:31:00,91.5,69.0,29.26,South,173,3.6,4.0,48,0.00,,---,0.00,VWS V14.00,2013-07-08 16:31:00,
2013-07-08 11:34:00,91.3,68.9,29.26,South,178,2.7,5.4,48,0.00,,---,0.00,VWS V14.00,2013-07-08 16:34:00,
2013-07-08 11:37:00,91.3,68.9,29.26,SE,140,2.7,5.4,48,0.00,,---,0.00,VWS V14.00,2013-07-08 16:37:00,
2013-07-08 11:40:00,91.1,68.7,29.26,South,182,5.4,5.4,48,0.00,,---,0.00,VWS V14.00,2013-07-08 16:40:00,
2013-07-08 11:43:00,91.1,68.7,29.26,South,170,5.4,6.3,48,0.00,,---,0.00,VWS V14.00,2013-07-08 16:43:00,
2013-07-08 11:46:00,90.9,67.9,29.26,South,186,3.6,3.6,47,0.00,,---,0.00,VWS V14.00,2013-07-08 16:46:00,
2013-07-08 11:52:00,90.6,67.6,29.26,SSE,168,4.0,5.4,47,0.00,,---,0.00,VWS V14.00,2013-07-08 16:52:00,
2013-07-08 11:55:00,90.4,67.4,29.26,South,176,5.4,5.4,47,0.00,,---,0.00,VWS V14.00,2013-07-08 16:55:00,
2013-07-08 11:58:00,90.4,66.8,29.26,SE,140,5.4,5.8,46,0.00,,---,0.00,VWS V14.00,2013-07-08 16:58:00,
2013-07-08 12:01:00,90.4,66.8,29.26,South,171,3.6,5.8,46,0.00,,---,0.00,VWS V14.00,2013-07-08 17:01:00,
2013-07-08 12:07:00,90.4,66.2,29.26,SSE,156,5.4,6.7,45,0.00,,---,0.00,VWS V14.00,2013-07-08 17:07:00,
2013-07-08 12:13:00,90.4,66.2,29.26,South,178,6.3,8.1,45,0.00,,---,0.00,VWS V14.00,2013-07-08 17:13:00,
2013-07-08 12:16:00,90.4,65.5,29.26,South,172,6.7,6.7,44,0.00,,---,0.00,VWS V14.00,2013-07-08 17:16:00,
2013-07-08 12:19:00,90.2,65.4,29.26,SSE,165,6.3,6.7,44,0.00,,---,0.00,VWS V14.00,2013-07-08 17:19:00,
2013-07-08 12:22:00,90.2,65.4,29.26,SSE,160,4.9,6.7,44,0.00,,---,0.00,VWS V14.00,2013-07-08 17:22:00,
2013-07-08 12:29:00,90.2,65.4,29.26,South,170,5.8,7.6,44,0.00,,---,0.00,VWS V14.00,2013-07-08 17:29:00,
2013-07-08 12:30:00,90.2,65.4,29.26,SSE,167,7.6,7.6,44,0.00,,---,0.00,VWS V14.00,2013-07-08 17:30:00,
2013-07-08 12:35:00,89.7,64.9,29.26,South,170,5.8,8.3,44,0.00,,---,0.00,VWS V14.00,2013-07-08 17:35:00,
2013-07-08 12:38:00,89.7,64.2,29.26,SSE,167,3.1,8.3,43,0.00,,---,0.00,VWS V14.00,2013-07-08 17:38:00,
2013-07-08 12:41:00,89.7,64.2,29.26,SSE,165,3.1,8.3,43,0.00,,---,0.00,VWS V14.00,2013-07-08 17:41:00,
2013-07-08 12:47:00,89.7,64.2,29.26,SSE,159,4.0,6.3,43,0.00,,---,0.00,VWS V14.00,2013-07-08 17:47:00,
2013-07-08 12:54:00,89.8,64.4,29.26,SSE,159,5.8,6.3,43,0.00,,---,0.00,VWS V14.00,2013-07-08 17:54:00,
2013-07-08 13:00:00,89.8,64.4,29.26,SSE,168,5.4,6.3,43,0.00,,---,0.00,VWS V14.00,2013-07-08 18:00:00,
2013-07-08 13:09:00,89.8,63.7,29.26,SSE,165,5.8,6.3,42,0.00,,---,0.00,VWS V14.00,2013-07-08 18:09:00,
2013-07-08 13:16:00,89.8,63.7,29.26,SSE,162,5.4,8.3,42,0.00,,---,0.00,VWS V14.00,2013-07-08 18:16:00,
2013-07-08 13:25:00,90.0,63.2,29.26,SSE,157,3.1,5.8,41,0.00,,---,0.00,VWS V14.00,2013-07-08 18:25:00,
2013-07-08 13:30:00,90.2,63.3,29.26,SSE,168,6.3,6.3,41,0.00,,---,0.00,VWS V14.00,2013-07-08 18:30:00,
2013-07-08 13:31:00,90.2,63.3,29.26,South,180,6.3,6.3,41,0.00,,---,0.00,VWS V14.00,2013-07-08 18:31:00,
2013-07-08 13:34:00,90.4,63.5,29.26,South,178,4.9,6.7,41,0.00,,---,0.00,VWS V14.00,2013-07-08 18:34:00,
2013-07-08 13:45:00,90.4,63.5,29.26,SE,142,2.2,7.2,41,0.00,,---,0.00,VWS V14.00,2013-07-08 18:45:00,
2013-07-08 13:47:00,90.4,63.5,29.26,SE,144,7.6,7.6,41,0.00,,---,0.00,VWS V14.00,2013-07-08 18:47:00,
2013-07-08 13:50:00,90.4,63.5,29.26,SSE,154,8.1,8.1,41,0.00,,---,0.00,VWS V14.00,2013-07-08 18:50:00,
2013-07-08 13:53:00,90.4,63.5,29.26,SSE,160,4.5,8.1,41,0.00,,---,0.00,VWS V14.00,2013-07-08 18:53:00,
2013-07-08 14:00:00,90.0,63.9,29.26,SSE,155,4.9,8.3,42,0.00,,---,0.00,VWS V14.00,2013-07-08 19:00:00,
2013-07-08 14:07:00,89.8,63.7,29.26,SE,142,4.0,7.6,42,0.00,,---,0.00,VWS V14.00,2013-07-08 19:07:00,
2013-07-08 14:10:00,89.8,63.7,29.26,SSW,198,6.3,7.6,42,0.00,,---,0.00,VWS V14.00,2013-07-08 19:10:00,
2013-07-08 14:13:00,89.7,63.5,29.26,SSE,168,6.3,7.6,42,0.00,,---,0.00,VWS V14.00,2013-07-08 19:13:00,
2013-07-08 14:22:00,89.7,64.2,29.26,SSE,165,5.4,7.6,43,0.00,,---,0.00,VWS V14.00,2013-07-08 19:22:00,
2013-07-08 14:28:00,89.7,64.2,29.26,SSE,150,3.1,7.6,43,0.00,,---,0.00,VWS V14.00,2013-07-08 19:28:00,
2013-07-08 14:30:00,89.7,64.2,29.26,East,101,2.7,7.6,43,0.00,,---,0.00,VWS V14.00,2013-07-08 19:30:00,
2013-07-08 14:35:00,89.7,64.2,29.26,South,177,3.1,5.8,43,0.00,,---,0.00,VWS V14.00,2013-07-08 19:35:00,
2013-07-08 14:44:00,89.7,64.2,29.26,SSE,165,2.7,6.3,43,0.00,,---,0.00,VWS V14.00,2013-07-08 19:44:00,
2013-07-08 14:45:00,89.7,64.2,29.26,SE,146,3.1,6.3,43,0.00,,---,0.00,VWS V14.00,2013-07-08 19:45:00,
2013-07-08 15:00:00,89.7,64.9,29.26,South,173,3.6,3.6,44,0.00,,---,0.00,VWS V14.00,2013-07-08 20:00:00,
2013-07-08 15:07:00,89.7,64.9,29.26,SSE,165,3.6,6.3,44,0.00,,---,0.00,VWS V14.00,2013-07-08 20:07:00,
2013-07-08 15:10:00,89.7,64.9,29.26,SSE,150,6.3,6.3,44,0.00,,---,0.00,VWS V14.00,2013-07-08 20:10:00,
2013-07-08 15:13:00,89.5,64.7,29.26,South,173,4.0,6.3,44,0.00,,---,0.00,VWS V14.00,2013-07-08 20:13:00,
2013-07-08 15:15:00,89.5,64.7,29.26,SSE,154,6.3,6.3,44,0.00,,---,0.00,VWS V14.00,2013-07-08 20:15:00,
2013-07-08 15:23:00,89.7,64.9,29.26,SE,145,3.6,6.3,44,0.00,,---,0.00,VWS V14.00,2013-07-08 20:23:00,
2013-07-08 15:26:00,89.8,65.0,29.26,SSE,161,4.0,6.3,44,0.00,,---,0.00,VWS V14.00,2013-07-08 20:26:00,
2013-07-08 15:30:00,89.8,65.0,29.26,South,170,4.9,7.6,44,0.00,,---,0.00,VWS V14.00,2013-07-08 20:30:00,
2013-07-08 15:35:00,89.7,64.2,29.26,South,182,4.0,5.8,43,0.00,,---,0.00,VWS V14.00,2013-07-08 20:35:00,
2013-07-08 15:41:00,89.7,64.2,29.26,SSE,167,2.7,5.8,43,0.00,,---,0.00,VWS V14.00,2013-07-08 20:41:00,
2013-07-08 15:44:00,89.5,64.1,29.26,SSE,160,4.9,5.8,43,0.00,,---,0.00,VWS V14.00,2013-07-08 20:44:00,
2013-07-08 15:50:00,89.5,64.1,29.26,ENE,72,3.1,4.9,43,0.00,,---,0.00,VWS V14.00,2013-07-08 20:50:00,
2013-07-08 16:00:00,89.5,64.1,29.26,SSE,160,3.6,5.4,43,0.00,,---,0.00,VWS V14.00,2013-07-08 21:00:00,
2013-07-08 16:03:00,89.5,64.1,29.26,SSE,157,2.7,5.8,43,0.00,,---,0.00,VWS V14.00,2013-07-08 21:03:00,
2013-07-08 16:06:00,89.5,64.1,29.26,South,173,2.7,5.8,43,0.00,,---,0.00,VWS V14.00,2013-07-08 21:06:00,
2013-07-08 16:15:00,89.3,63.9,29.26,SSE,166,3.1,4.0,43,0.00,,---,0.00,VWS V14.00,2013-07-08 21:15:00,
2013-07-08 16:22:00,89.5,64.1,29.26,SSE,168,3.6,5.8,43,0.00,,---,0.00,VWS V14.00,2013-07-08 21:22:00,
2013-07-08 16:30:00,89.7,64.2,29.26,SSE,156,3.6,5.8,43,0.00,,---,0.00,VWS V14.00,2013-07-08 21:30:00,
2013-07-08 16:35:00,89.7,64.2,29.26,SSE,167,4.0,7.6,43,0.00,,---,0.00,VWS V14.00,2013-07-08 21:35:00,
2013-07-08 16:41:00,89.7,63.5,29.26,South,172,3.1,7.6,42,0.00,,---,0.00,VWS V14.00,2013-07-08 21:41:00,
2013-07-08 16:44:00,89.7,63.5,29.26,SSE,168,3.6,7.6,42,0.00,,---,0.00,VWS V14.00,2013-07-08 21:44:00,
2013-07-08 16:45:00,89.7,63.5,29.26,SSE,164,3.1,7.6,42,0.00,,---,0.00,VWS V14.00,2013-07-08 21:45:00,
2013-07-08 16:50:00,89.7,63.5,29.26,SSE,153,2.7,5.4,42,0.00,,---,0.00,VWS V14.00,2013-07-08 21:50:00,
2013-07-08 17:16:00,89.8,63.7,29.26,South,177,3.6,4.0,42,0.00,,---,0.00,VWS V14.00,2013-07-08 22:16:00,
2013-07-08 17:22:00,89.8,63.7,29.26,South,171,3.1,4.9,42,0.00,,---,0.00,VWS V14.00,2013-07-08 22:22:00,
2013-07-08 17:25:00,89.8,63.7,29.26,SE,145,3.6,4.9,42,0.00,,---,0.00,VWS V14.00,2013-07-08 22:25:00,
2013-07-08 17:28:00,89.8,63.7,29.26,South,170,3.6,5.4,42,0.00,,---,0.00,VWS V14.00,2013-07-08 22:28:00,
2013-07-08 17:35:00,89.7,63.5,29.26,South,169,4.9,5.4,42,0.00,,---,0.00,VWS V14.00,2013-07-08 22:35:00,
2013-07-08 17:45:00,89.3,63.9,29.26,SSE,160,3.6,5.8,43,0.00,,---,0.00,VWS V14.00,2013-07-08 22:45:00,
2013-07-08 17:51:00,89.3,63.2,29.26,SSE,160,3.1,5.8,42,0.00,,---,0.00,VWS V14.00,2013-07-08 22:51:00,
2013-07-08 17:57:00,89.3,63.2,29.26,SSE,164,4.0,5.8,42,0.00,,---,0.00,VWS V14.00,2013-07-08 22:57:00,
2013-07-08 18:07:00,89.1,63.1,29.26,SSE,153,4.0,5.8,42,0.00,,---,0.00,VWS V14.00,2013-07-08 23:07:00,
2013-07-08 18:10:00,89.1,63.1,29.26,SSE,162,4.0,5.8,42,0.00,,---,0.00,VWS V14.00,2013-07-08 23:10:00,
2013-07-08 18:20:00,88.9,62.9,29.26,SSE,168,3.6,4.9,42,0.00,,---,0.00,VWS V14.00,2013-07-08 23:20:00,
2013-07-08 18:23:00,88.8,62.7,29.26,SSE,164,2.7,5.4,42,0.00,,---,0.00,VWS V14.00,2013-07-08 23:23:00,
2013-07-08 18:29:00,88.6,63.2,29.26,South,175,4.9,5.4,43,0.00,,---,0.00,VWS V14.00,2013-07-08 23:29:00,
2013-07-08 18:35:00,88.4,63.1,29.26,SSE,168,3.6,4.0,43,0.00,,---,0.00,VWS V14.00,2013-07-08 23:35:00,
2013-07-08 18:38:00,88.2,62.9,29.26,SE,146,2.7,4.9,43,0.00,,---,0.00,VWS V14.00,2013-07-08 23:38:00,
2013-07-08 18:41:00,88.2,62.9,29.26,South,181,3.1,4.9,43,0.00,,---,0.00,VWS V14.00,2013-07-08 23:41:00,
2013-07-08 18:44:00,88.0,62.8,29.26,SE,144,3.1,5.8,43,0.00,,---,0.00,VWS V14.00,2013-07-08 23:44:00,
2013-07-08 18:51:00,87.9,63.2,29.26,SSE,165,3.1,5.8,44,0.00,,---,0.00,VWS V14.00,2013-07-08 23:51:00,
2013-07-08 18:54:00,87.9,63.2,29.26,SSE,157,3.6,5.8,44,0.00,,---,0.00,VWS V14.00,2013-07-08 23:54:00,
2013-07-08 18:57:00,87.7,63.1,29.26,South,183,4.0,5.8,44,0.00,,---,0.00,VWS V14.00,2013-07-08 23:57:00,
2013-07-08 19:17:00,87.3,63.4,29.26,South,179,3.1,4.0,45,0.00,,---,0.00,VWS V14.00,2013-07-09 00:17:00,
2013-07-08 19:30:00,87.0,63.1,29.26,SSE,167,3.6,4.9,45,0.00,,---,0.00,VWS V14.00,2013-07-09 00:30:00,
2013-07-08 19:33:00,87.0,63.1,29.26,South,183,3.1,4.9,45,0.00,,---,0.00,VWS V14.00,2013-07-09 00:33:00,
2013-07-08 19:46:00,86.6,64.6,29.26,South,183,3.1,3.6,48,0.00,,---,0.00,VWS V14.00,2013-07-09 00:46:00,
2013-07-08 19:55:00,86.4,65.0,29.26,South,176,4.0,4.9,49,0.00,,---,0.00,VWS V14.00,2013-07-09 00:55:00,
2013-07-08 20:02:00,86.2,65.4,29.26,SSE,155,2.7,3.1,50,0.00,,---,0.00,VWS V14.00,2013-07-09 01:02:00,
2013-07-08 20:11:00,85.9,65.7,29.26,SSW,202,2.2,3.6,51,0.00,,---,0.00,VWS V14.00,2013-07-09 01:11:00,
2013-07-08 20:14:00,85.7,66.1,29.26,SSW,195,3.1,3.6,52,0.00,,---,0.00,VWS V14.00,2013-07-09 01:14:00,
2013-07-08 20:15:00,85.7,66.1,29.26,South,184,2.7,3.6,52,0.00,,---,0.00,VWS V14.00,2013-07-09 01:15:00,
2013-07-08 20:24:00,85.5,65.9,29.26,South,170,2.7,4.0,52,0.00,,---,0.00,VWS V14.00,2013-07-09 01:24:00,
2013-07-08 20:27:00,85.3,65.7,29.26,South,170,0.0,4.0,52,0.00,,---,0.00,VWS V14.00,2013-07-09 01:27:00,
2013-07-08 20:30:00,85.2,65.6,29.26,South,170,0.0,4.0,52,0.00,,---,0.00,VWS V14.00,2013-07-09 01:30:00,
2013-07-08 20:36:00,85.0,65.9,29.26,South,170,0.0,0.0,53,0.00,,---,0.00,VWS V14.00,2013-07-09 01:36:00,
2013-07-08 20:39:00,84.8,65.8,29.26,South,170,0.0,0.0,53,0.00,,---,0.00,VWS V14.00,2013-07-09 01:39:00,
2013-07-08 20:45:00,84.6,65.6,29.26,South,170,0.0,0.0,53,0.00,,---,0.00,VWS V14.00,2013-07-09 01:45:00,
2013-07-08 20:58:00,84.1,66.2,29.26,South,170,0.0,0.0,55,0.00,,---,0.00,VWS V14.00,2013-07-09 01:58:00,
2013-07-08 21:08:00,83.9,66.5,29.26,South,170,0.0,0.0,56,0.00,,---,0.00,VWS V14.00,2013-07-09 02:08:00,
2013-07-08 21:14:00,83.9,66.5,29.26,South,170,0.0,0.0,56,0.00,,---,0.00,VWS V14.00,2013-07-09 02:14:00,
2013-07-08 21:30:00,83.4,67.1,29.26,South,170,0.0,0.0,58,0.00,,---,0.00,VWS V14.00,2013-07-09 02:30:00,
2013-07-08 21:37:00,83.4,67.1,29.26,South,170,0.0,0.0,58,0.00,,---,0.00,VWS V14.00,2013-07-09 02:37:00,
2013-07-08 21:40:00,83.4,67.1,29.26,South,170,0.0,0.0,58,0.00,,---,0.00,VWS V14.00,2013-07-09 02:40:00,
2013-07-08 21:46:00,82.8,66.6,29.26,South,170,0.0,0.0,58,0.00,,---,0.00,VWS V14.00,2013-07-09 02:46:00,
2013-07-08 21:49:00,82.8,66.6,29.26,South,170,0.0,0.0,58,0.00,,---,0.00,VWS V14.00,2013-07-09 02:49:00,
2013-07-08 21:52:00,82.6,66.4,29.26,South,170,0.0,0.0,58,0.00,,---,0.00,VWS V14.00,2013-07-09 02:52:00,
2013-07-08 21:58:00,82.6,66.9,29.26,South,170,0.0,0.0,59,0.00,,---,0.00,VWS V14.00,2013-07-09 02:58:00,
2013-07-08 22:08:00,82.5,66.7,29.26,South,170,0.0,0.0,59,0.00,,---,0.00,VWS V14.00,2013-07-09 03:08:00,
2013-07-08 22:14:00,82.1,66.4,29.26,South,170,0.0,0.0,59,0.00,,---,0.00,VWS V14.00,2013-07-09 03:14:00,
2013-07-08 22:17:00,82.1,66.4,29.26,South,170,0.0,0.0,59,0.00,,---,0.00,VWS V14.00,2013-07-09 03:17:00,
2013-07-08 22:20:00,82.1,66.4,29.26,South,170,0.0,0.0,59,0.00,,---,0.00,VWS V14.00,2013-07-09 03:20:00,
2013-07-08 22:27:00,81.9,66.2,29.26,South,170,0.0,0.0,59,0.00,,---,0.00,VWS V14.00,2013-07-09 03:27:00,
2013-07-08 22:30:00,81.9,66.7,29.26,South,170,0.0,0.0,60,0.00,,---,0.00,VWS V14.00,2013-07-09 03:30:00,
2013-07-08 22:33:00,81.9,66.7,29.26,South,170,0.0,0.0,60,0.00,,---,0.00,VWS V14.00,2013-07-09 03:33:00,
2013-07-08 22:42:00,81.6,66.3,29.26,South,170,0.0,0.0,60,0.00,,---,0.00,VWS V14.00,2013-07-09 03:42:00,
2013-07-08 22:45:00,81.4,66.2,29.26,South,170,0.0,0.0,60,0.00,,---,0.00,VWS V14.00,2013-07-09 03:45:00,
2013-07-08 23:01:00,81.0,66.8,29.26,South,170,0.0,0.0,62,0.00,,---,0.00,VWS V14.00,2013-07-09 04:01:00,
2013-07-08 23:02:00,81.0,66.8,29.26,South,170,0.0,0.0,62,0.00,,---,0.00,VWS V14.00,2013-07-09 04:02:00,
2013-07-08 23:05:00,81.0,66.8,29.26,South,170,0.0,0.0,62,0.00,,---,0.00,VWS V14.00,2013-07-09 04:05:00,
2013-07-08 23:08:00,80.8,66.6,29.26,South,170,0.0,0.0,62,0.00,,---,0.00,VWS V14.00,2013-07-09 04:08:00,
2013-07-08 23:11:00,80.8,66.6,29.26,South,170,0.0,0.0,62,0.00,,---,0.00,VWS V14.00,2013-07-09 04:11:00,
2013-07-08 23:15:00,80.7,66.9,29.26,South,170,0.0,0.0,63,0.00,,---,0.00,VWS V14.00,2013-07-09 04:15:00,
2013-07-08 23:17:00,80.7,66.9,29.26,South,170,0.0,0.0,63,0.00,,---,0.00,VWS V14.00,2013-07-09 04:17:00,
2013-07-08 23:20:00,80.5,66.7,29.26,South,170,0.0,0.0,63,0.00,,---,0.00,VWS V14.00,2013-07-09 04:20:00,
2013-07-08 23:26:00,80.3,66.6,29.26,South,170,0.0,0.0,63,0.00,,---,0.00,VWS V14.00,2013-07-09 04:26:00,
2013-07-08 23:29:00,80.3,66.6,29.26,South,170,0.0,0.0,63,0.00,,---,0.00,VWS V14.00,2013-07-09 04:29:00,
2013-07-08 23:32:00,80.3,67.0,29.26,South,170,0.0,0.0,64,0.00,,---,0.00,VWS V14.00,2013-07-09 04:32:00,
2013-07-08 23:35:00,80.1,66.8,29.26,South,170,0.0,0.0,64,0.00,,---,0.00,VWS V14.00,2013-07-09 04:35:00,
2013-07-08 23:41:00,79.9,66.7,29.26,South,170,0.0,0.0,64,0.00,,---,0.00,VWS V14.00,2013-07-09 04:41:00,
2013-07-08 23:44:00,79.9,66.7,29.26,South,170,0.0,0.0,64,0.00,,---,0.00,VWS V14.00,2013-07-09 04:44:00,
2013-07-08 23:45:00,79.9,66.7,29.26,South,170,0.0,0.0,64,0.00,,---,0.00,VWS V14.00,2013-07-09 04:45:00,
2013-07-08 23:47:00,79.8,66.5,29.26,South,170,0.0,0.0,64,0.00,,---,0.00,VWS V14.00,2013-07-09 04:47:00,
2013-07-08 23:50:00,79.8,66.5,29.26,South,170,0.0,0.0,64,0.00,,---,0.00,VWS V14.00,2013-07-09 04:50:00,
2013-07-08 23:53:00,79.8,66.5,29.26,South,170,0.0,0.0,64,0.00,,---,0.00,VWS V14.00,2013-07-09 04:53:00,
2013-07-08 23:56:00,79.8,66.5,29.26,South,170,0.0,0.0,64,0.00,,---,0.00,VWS V14.00,2013-07-09 04:56:00,